User: anonymous   Login
Location: La Brionne
(46.1728°N, 1.7849°E)
Time: 16:17:12
(UTC+00:00)
Language:

TIGRISAT - Orbit

View from above orbital plane
View from above orbital plane
View from above satellite
View from above satellite

Ground track
Ground track

The orbit data is extracted from the following two-line orbital elements,

1 40043U 14033AK  23078.78477316  .00002554  00000-0  36794-3 0  9993
2 40043  97.6601 258.3858 0057759 345.0317  14.9181 14.76022491470222
Epoch (UTC): 19 March 2023 18:50:04
Eccentricity: 0.0057759
inclination: 97.6601°
perigee height: 601 km
apogee height: 682 km
right ascension of ascending node: 258.3858°
argument of perigee: 345.0317°
revolutions per day: 14.76022491
mean anomaly at epoch: 14.9181°
orbit number at epoch: 47022

The dashed part of the orbit path shows where the satellite is in the earth's shadow,  

DLR